Location: Sperry Observatory
(40.6664°N, 74.3236°W)
Time: 20:38:48
(UTC-05:00)

Amateur Radio Satellites - All Passes

Search period start: 22 December 2014 20:08
Search period end: 23 December 2014 20:08
Location: Sperry Observatory, 40.6664°N, 74.3236°W

Satellite Date Start Highest point End Downlink Frequencies (MHz)
Time Altitude Azimuth
AAUSAT CUBESAT 2 22 Dec 20:08:40 20:12:47 57° 74° (ENE) 20:16:58 437.432
Oscar 11 22 Dec 20:09:55 20:13:42 30° 69° (ENE) 20:17:29 145.826/435.025
CUBESAT XI-V 22 Dec 20:16:40 20:18:45 13° 298° (WNW) 20:20:50 437.345
ISS 22 Dec 20:18:17 20:20:40 19° 228° (SW) 20:23:01 145.825
UKube-1 22 Dec 20:20:00 20:23:45 30° 69° (ENE) 20:27:31 .
CANX-2 22 Dec 20:30:39 20:34:45 45° 261° (W) 20:38:53 2200.000
BEESAT 3 22 Dec 20:33:14 20:36:44 25° 48° (NE) 20:40:12 437.485
HO-68 22 Dec 20:33:52 20:40:52 55° 259° (WSW) 20:47:54 435.675
BRITE-PL 22 Dec 20:40:46 20:44:33 34° 263° (W) 20:48:22 437.365/2234.400
RS-15 22 Dec 20:41:18 20:52:37 83° 241° (WSW) 21:04:27 29.354- 29.394
CUBEBUG 2 22 Dec 20:45:34 20:49:33 45° 72° (ENE) 20:53:39 437.445
COMPASS 1 22 Dec 20:45:50 20:49:53 46° 261° (W) 20:54:00 437.405
ZACube-1 22 Dec 20:46:19 20:50:05 33° 70° (ENE) 20:53:55 437.345
DELFI C3 22 Dec 20:48:06 20:52:11 66° 75° (ENE) 20:56:17 145.870
50 SAT 22 Dec 20:49:58 20:52:31 16° 66° (ENE) 20:55:05 437.505
AIST 2 22 Dec 20:53:35 20:56:43 19° 45° (NE) 20:59:49 435.215
SEEDS 22 Dec 20:54:59 20:58:45 31° 264° (W) 21:02:34 437.485
GOMX 1 22 Dec 20:55:36 20:59:21 33° 263° (W) 21:03:10 467.674
VELOX 1 22 Dec 20:56:23 21:00:00 25° 68° (ENE) 21:03:37 145.980
CUTE 1.7 + AOD 2 22 Dec 21:02:01 21:05:25 23° 266° (W) 21:08:51 437.475
DANDE 22 Dec 21:02:33 21:10:07 49° 268° (W) 21:18:21 436.750
ESTCUBE 1 22 Dec 21:08:42 21:11:11 15° 63° (ENE) 21:13:40 437.505/2401.250
DOVE 4 22 Dec 21:10:12 21:13:55 32° 264° (W) 21:17:42 437.250
FUNcube-1 22 Dec 21:11:53 21:16:01 64° 75° (ENE) 21:20:16 145.935
BEESAT 2 22 Dec 21:14:53 21:19:02 56° 55° (NE) 21:23:06 435.950
CINEMA 3 22 Dec 21:17:53 21:21:52 45° 261° (W) 21:26:00 145.822/145.860
PCSat 22 Dec 21:17:57 21:22:35 28° 49° (NE) 21:27:11 145.827
UWE-3 22 Dec 21:18:36 21:22:47 88° 259° (W) 21:27:06 435.000/436.395/437.385
UNISAT 6 22 Dec 21:25:44 21:27:57 13° 90° (E) 21:30:09 437.425
DX 1 22 Dec 21:27:06 21:31:16 47° 260° (W) 21:35:29 434.975-435.025
HUMSAT D 22 Dec 21:28:44 21:32:47 57° 74° (ENE) 21:36:55 437.325/437.525
CUBEBUG 1 22 Dec 21:38:14 21:41:51 26° 68° (ENE) 21:45:29 437.445
AISAT 22 Dec 21:40:01 21:44:25 77° 75° (ENE) 21:48:50 437.250
CUSAT 1 22 Dec 21:43:48 21:49:46 24° 276° (W) 21:55:59 437.405
Oscar 11 22 Dec 21:46:22 21:49:51 24° 265° (W) 21:53:22 145.826/435.025
AAUSAT CUBESAT 2 22 Dec 21:47:19 21:48:49 12° 270° (W) 21:50:19 437.432
SO-50 22 Dec 21:48:05 21:51:32 21° 317° (NW) 21:55:04 436.795
ANTELSAT 22 Dec 21:56:23 22:00:27 28° 95° (E) 22:04:30 437.575/2403.000
UKube-1 22 Dec 21:56:24 21:59:54 24° 264° (W) 22:03:25 .
POPSAT HIP 1 22 Dec 22:04:55 22:08:04 20° 94° (E) 22:11:12 437.405
BEESAT 3 22 Dec 22:11:12 22:14:56 32° 245° (WSW) 22:18:37 437.485
YUBILEINY 22 Dec 22:17:00 22:23:55 27° 82° (E) 22:30:48 435.215
BUGSAT 1 22 Dec 22:19:02 22:22:11 21° 95° (E) 22:25:21 437.445
ZACube-1 22 Dec 22:23:25 22:26:32 20° 267° (W) 22:29:42 437.345
50 SAT 22 Dec 22:23:39 22:27:24 39° 262° (W) 22:31:13 437.505
CUBEBUG 2 22 Dec 22:24:10 22:26:32 15° 269° (W) 22:28:56 437.445
TISAT 1 22 Dec 22:25:57 22:29:07 21° 67° (ENE) 22:32:18 437.305
TIGRISAT 22 Dec 22:29:56 22:34:37 61° 101° (E) 22:39:17 435.000
DUCHIFAT 1 22 Dec 22:31:01 22:35:00 38° 98° (E) 22:38:59 145.980
AIST 2 22 Dec 22:31:27 22:35:37 50° 243° (WSW) 22:39:42 435.215
VELOX 1 22 Dec 22:32:37 22:36:28 29° 263° (W) 22:40:19 145.980
SPROUT 22 Dec 22:36:44 22:40:16 26° 68° (ENE) 22:43:48 437.525
ESTCUBE 1 22 Dec 22:43:06 22:47:34 57° 259° (W) 22:52:03 437.505/2401.250
QB50P2 22 Dec 22:46:12 22:50:26 59° 101° (E) 22:54:40 145.880/145.840
FUNcube-1 22 Dec 22:52:18 22:52:50 10° 271° (W) 22:53:21 145.935
O/OREOS (USA 219) 22 Dec 22:54:40 22:57:02 14° 99° (E) 22:59:23 437.305
BEESAT 2 22 Dec 22:54:43 22:56:47 14° 251° (WSW) 22:58:50 435.950
POLYITAN 1 22 Dec 22:55:52 23:00:11 77° 102° (ESE) 23:04:29 437.675
NANOSAT C BR1 22 Dec 22:55:56 23:00:12 76° 102° (ESE) 23:04:28 145.865
RS-15 22 Dec 22:56:04 23:03:18 20° 261° (W) 23:10:46 29.354- 29.394
UNISAT 6 22 Dec 23:00:26 23:05:07 64° 286° (WNW) 23:09:47 437.425
PCSat 22 Dec 23:01:01 23:06:10 45° 248° (WSW) 23:11:17 145.827
HUMSAT D 22 Dec 23:07:42 23:08:58 11° 270° (W) 23:10:13 437.325/437.525
BEESAT 22 Dec 23:08:19 23:09:34 11° 60° (ENE) 23:10:48 436.000
QB50P1 22 Dec 23:10:49 23:15:04 73° 285° (WNW) 23:19:20 145.935-145.965
CUBEBUG 1 22 Dec 23:14:26 23:18:08 27° 264° (W) 23:21:51 437.445
ANTELSAT 22 Dec 23:33:04 23:37:11 30° 291° (WNW) 23:41:17 437.575/2403.000
POPSAT HIP 1 22 Dec 23:40:10 23:44:02 34° 289° (WNW) 23:47:54 437.405
BUGSAT 1 22 Dec 23:54:11 23:57:41 29° 290° (WNW) 00:01:12 437.445
TISAT 1 23 Dec 00:00:59 00:04:45 32° 263° (W) 00:08:32 437.305
DUCHIFAT 1 23 Dec 00:07:37 00:10:35 19° 294° (WNW) 00:13:32 145.980
TIGRISAT 23 Dec 00:08:12 00:10:50 15° 297° (WNW) 00:13:28 435.000
YUBILEINY 23 Dec 00:11:23 00:20:01 63° 281° (W) 00:28:40 435.215
AUBIESAT-1 23 Dec 00:12:29 00:16:37 29° 63° (ENE) 00:20:46 437.475
SPROUT 23 Dec 00:12:39 00:16:15 27° 264° (W) 00:19:54 437.525
SWISSCUBE 23 Dec 00:17:30 00:22:12 57° 73° (ENE) 00:26:54 437.505
ITUPSAT 1 23 Dec 00:19:02 00:23:42 54° 72° (ENE) 00:28:24 437.325
QB50P2 23 Dec 00:23:56 00:25:51 13° 297° (WNW) 00:27:46 145.880/145.840
O/OREOS (USA 219) 23 Dec 00:31:36 00:35:56 51° 295° (WNW) 00:40:19 437.305
POLYITAN 1 23 Dec 00:34:59 00:35:29 10° 299° (WNW) 00:35:59 437.675
NANOSAT C BR1 23 Dec 00:34:59 00:35:27 10° 298° (WNW) 00:35:55 145.865
M-CUBED/EXP-1 PRIME 23 Dec 00:39:13 00:43:58 56° 68° (ENE) 00:48:47 437.505
Oscar 19 23 Dec 00:39:13 00:43:25 24° 94° (E) 00:47:35 437.125/150
BEESAT 23 Dec 00:41:52 00:46:40 87° 256° (WSW) 00:51:29 436.000
STARS 23 Dec 00:57:47 01:00:49 19° 65° (ENE) 01:03:51 437.465
ITAMSAT 1 23 Dec 01:01:47 01:04:22 14° 90° (E) 01:06:57 435.822/435.867
KKS-1 23 Dec 01:05:51 01:09:48 33° 70° (ENE) 01:13:46 437.445
Gurwin Techsat 1B 23 Dec 01:12:55 01:13:55 11° 88° (E) 01:14:54 435.225
AUBIESAT-1 23 Dec 01:46:58 01:51:22 35° 258° (WSW) 01:55:51 437.475
VERMONT LUNAR 23 Dec 01:51:32 01:54:46 34° 157° (SSE) 01:57:59 437.305
SWISSCUBE 23 Dec 01:57:44 02:00:24 15° 269° (W) 02:03:04 437.505
ITUPSAT 1 23 Dec 01:59:01 02:01:54 16° 268° (W) 02:04:48 437.325
YUBILEINY 23 Dec 02:15:59 02:18:50 12° 304° (NW) 02:21:41 435.215
M-CUBED/EXP-1 PRIME 23 Dec 02:16:01 02:19:13 17° 264° (W) 02:22:28 437.505
PHONESAT 2.4 23 Dec 02:17:43 02:21:02 34° 157° (SSE) 02:24:22 2401.200-2431.200
Oscar 19 23 Dec 02:18:01 02:22:52 40° 290° (WNW) 02:27:41 437.125/150
HORYU 2 23 Dec 02:29:43 02:33:13 22° 94° (E) 02:36:42 437.375
STARS 23 Dec 02:32:51 02:36:58 40° 261° (W) 02:41:08 437.465
MOZHAYETS 4 23 Dec 02:36:56 02:37:44 10° 60° (ENE) 02:38:32
ITAMSAT 1 23 Dec 02:39:11 02:44:20 69° 287° (WNW) 02:49:28 435.822/435.867
KKS-1 23 Dec 02:43:02 02:46:29 22° 265° (W) 02:49:57 437.445
Gurwin Techsat 1B 23 Dec 02:49:12 02:54:33 88° 285° (WNW) 02:59:51 435.225
AIST 1 23 Dec 03:04:33 03:08:49 71° 81° (E) 03:13:03
VERMONT LUNAR 23 Dec 03:29:21 03:32:53 83° 173° (S) 03:36:25 437.305
AO-7 23 Dec 03:43:26 03:51:25 46° 100° (E) 03:59:19 29.400- 29.500
PHONESAT 2.4 23 Dec 03:55:54 03:59:32 83° 172° (S) 04:03:10 2401.200-2431.200
PRISM 23 Dec 03:59:41 04:00:37 11° 62° (ENE) 04:01:33 437.425
HORYU 2 23 Dec 04:05:51 04:09:57 35° 290° (WNW) 04:14:01 437.375
MOZHAYETS 4 23 Dec 04:09:34 04:14:13 86° 257° (WSW) 04:18:55
GONETS M04 23 Dec 04:11:33 04:19:06 33° 84° (E) 04:26:39
JAS-2 23 Dec 04:26:41 04:31:37 33° 95° (E) 04:36:15 435.910
Gurwin Techsat 1B 23 Dec 04:31:44 04:33:42 12° 302° (WNW) 04:35:39 435.225
SO-50 23 Dec 04:37:55 04:42:39 48° 53° (NE) 04:47:24 436.795
VERMONT LUNAR 23 Dec 05:07:39 05:11:11 77° 190° (S) 05:14:42 437.305
STRAND 1 23 Dec 05:17:44 05:22:19 34° 68° (ENE) 05:26:54 437.568
PRISM 23 Dec 05:31:20 05:35:33 72° 257° (WSW) 05:39:47 437.425
PHONESAT 2.4 23 Dec 05:34:36 05:38:13 76° 190° (S) 05:41:50 2401.200-2431.200
AO-7 23 Dec 05:36:24 05:44:03 42° 299° (WNW) 05:51:41 29.400- 29.500
CUBESAT XI-V 23 Dec 05:40:19 05:44:55 62° 74° (ENE) 05:49:32 437.345
Cubesat XI-IV 23 Dec 05:55:14 06:00:20 45° 99° (E) 06:05:25 437.490
GONETS M04 23 Dec 06:06:54 06:15:29 54° 283° (WNW) 06:24:06
JAS-2 23 Dec 06:11:56 06:16:39 29° 295° (WNW) 06:21:05 435.910
SO-50 23 Dec 06:19:11 06:22:54 22° 249° (WSW) 06:26:36 436.795
CUTE-I 23 Dec 06:27:33 06:32:54 89° 104° (ESE) 06:38:13 437.470
VERMONT LUNAR 23 Dec 06:46:11 06:49:14 28° 206° (SSW) 06:52:16 437.305
STRAND 1 23 Dec 06:57:11 07:01:31 28° 264° (W) 07:05:51 437.568
PHONESAT 2.4 23 Dec 07:13:30 07:16:39 28° 206° (SSW) 07:19:47 2401.200-2431.200
CUBESAT XI-V 23 Dec 07:20:41 07:22:45 13° 270° (W) 07:24:49 437.345
Cubesat XI-IV 23 Dec 07:35:59 07:40:07 23° 296° (WNW) 07:44:14 437.490
MaSat-1 23 Dec 07:57:26 07:59:42 89° 291° (WNW) 08:01:54 437.345
HO-68 23 Dec 08:02:14 08:08:22 30° 96° (E) 08:14:26 435.675
CUTE-I 23 Dec 08:10:00 08:12:11 13° 301° (WNW) 08:14:22 437.470
CANX-2 23 Dec 08:16:42 08:20:33 30° 96° (E) 08:24:21 2200.000
UNISAT 6 23 Dec 08:26:03 08:27:29 11° 61° (ENE) 08:28:56 437.425
YUBILEINY 23 Dec 08:28:29 08:31:42 12° 57° (ENE) 08:34:54 435.215
COMPASS 1 23 Dec 08:30:23 08:34:05 28° 96° (E) 08:37:45 437.405
DANDE 23 Dec 08:35:09 08:38:18 26° 86° (E) 08:42:18 436.750
CUBEBUG 2 23 Dec 08:39:21 08:40:40 11° 89° (E) 08:42:00 437.445
SEEDS 23 Dec 08:39:38 08:43:44 43° 98° (E) 08:47:48 437.485
BRITE-PL 23 Dec 08:44:02 08:48:50 68° 101° (ESE) 08:54:01 437.365/2234.400
CUTE 1.7 + AOD 2 23 Dec 08:46:48 08:51:06 62° 101° (E) 08:55:20 437.475
ANTELSAT 23 Dec 08:55:53 08:59:22 24° 67° (ENE) 09:02:57 437.575/2403.000
GOMX 1 23 Dec 08:56:06 09:00:57 65° 101° (E) 09:06:06 467.674
POPSAT HIP 1 23 Dec 08:58:45 09:01:13 15° 65° (ENE) 09:03:42 437.405
RS-15 23 Dec 09:00:14 09:04:33 13° 96° (E) 09:08:51 29.354- 29.394
FUNcube-1 23 Dec 09:02:22 09:04:42 14° 91° (E) 09:07:03 145.935
O/OREOS (USA 219) 23 Dec 09:02:49 09:06:43 28° 60° (ENE) 09:10:37 437.305
DOVE 4 23 Dec 09:08:11 09:13:01 64° 101° (E) 09:18:07 437.250
UWE-3 23 Dec 09:09:36 09:13:03 20° 93° (E) 09:16:32 435.000/436.395/437.385
BUGSAT 1 23 Dec 09:10:09 09:12:36 16° 65° (ENE) 09:15:03 437.445
CUSAT 1 23 Dec 09:11:15 09:15:04 89° 102° (ESE) 09:20:18 437.405
CINEMA 3 23 Dec 09:12:29 09:17:04 42° 98° (E) 09:21:46 145.822/145.860
DX 1 23 Dec 09:16:05 09:19:52 28° 97° (E) 09:23:37 434.975-435.025
HUMSAT D 23 Dec 09:16:50 09:17:17 10° 89° (E) 09:17:44 437.325/437.525
DUCHIFAT 1 23 Dec 09:23:55 09:27:30 28° 69° (ENE) 09:31:06 145.980
AAUSAT CUBESAT 2 23 Dec 09:28:06 09:32:20 70° 285° (WNW) 09:36:31 437.432
TIGRISAT 23 Dec 09:28:38 09:32:51 50° 73° (ENE) 09:37:12 435.000
AISAT 23 Dec 09:32:55 09:35:31 15° 92° (E) 09:38:06 437.250
Oscar 11 23 Dec 09:33:06 09:37:27 63° 101° (E) 09:41:45 145.826/435.025
QB50P2 23 Dec 09:39:12 09:43:10 42° 72° (ENE) 09:47:11 145.880/145.840
UKube-1 23 Dec 09:43:35 09:47:51 56° 101° (E) 09:52:06 .
NANOSAT C BR1 23 Dec 09:48:32 09:52:37 54° 73° (ENE) 09:56:44 145.865
POLYITAN 1 23 Dec 09:48:57 09:53:03 55° 74° (ENE) 09:57:12 437.675
HO-68 23 Dec 09:49:26 09:56:17 52° 293° (WNW) 10:03:07 435.675
CANX-2 23 Dec 09:52:55 09:56:19 23° 292° (WNW) 09:59:42 2200.000
UNISAT 6 23 Dec 09:59:14 10:03:36 73° 258° (WSW) 10:08:08 437.425
QB50P1 23 Dec 10:03:22 10:07:34 81° 76° (ENE) 10:11:48 145.935-145.965
50 SAT 23 Dec 10:04:14 10:07:50 28° 96° (E) 10:11:25 437.505
DELFI C3 23 Dec 10:04:15 10:08:21 66° 285° (WNW) 10:12:24 145.870
COMPASS 1 23 Dec 10:06:15 10:09:41 24° 292° (WNW) 10:13:05 437.405
ZACube-1 23 Dec 10:10:58 10:15:33 77° 102° (ESE) 10:20:09 437.345
CUBEBUG 2 23 Dec 10:13:08 10:17:48 74° 285° (WNW) 10:22:33 437.445
SEEDS 23 Dec 10:16:28 10:19:12 17° 295° (WNW) 10:21:56 437.485
DANDE 23 Dec 10:18:43 10:21:48 22° 295° (WNW) 10:25:39 436.750
YUBILEINY 23 Dec 10:21:47 10:30:27 65° 79° (E) 10:39:04 435.215
VELOX 1 23 Dec 10:23:06 10:27:26 52° 100° (E) 10:31:45 145.980
BRITE-PL 23 Dec 10:24:19 10:26:54 15° 296° (WNW) 10:29:35 437.365/2234.400
CUTE 1.7 + AOD 2 23 Dec 10:24:39 10:26:29 13° 297° (WNW) 10:28:18 437.475
ANTELSAT 23 Dec 10:32:04 10:35:59 32° 264° (W) 10:40:02 437.575/2403.000
POPSAT HIP 1 23 Dec 10:32:41 10:36:44 46° 261° (W) 10:40:48 437.405
GOMX 1 23 Dec 10:35:50 10:38:37 15° 296° (WNW) 10:41:30 467.674
ESTCUBE 1 23 Dec 10:36:40 10:40:36 30° 96° (E) 10:44:31 437.505/2401.250
FUNcube-1 23 Dec 10:36:53 10:41:22 57° 286° (WNW) 10:45:52 145.935
O/OREOS (USA 219) 23 Dec 10:42:11 10:46:03 28° 257° (WSW) 10:49:55 437.305
BUGSAT 1 23 Dec 10:43:54 10:47:46 41° 261° (W) 10:51:38 437.445
UWE-3 23 Dec 10:45:23 10:49:42 40° 289° (WNW) 10:54:03 435.000/436.395/437.385
DOVE 4 23 Dec 10:47:30 10:50:19 16° 296° (WNW) 10:53:14 437.250
HUMSAT D 23 Dec 10:49:11 10:53:30 69° 285° (WNW) 10:57:50 437.325/437.525
CINEMA 3 23 Dec 10:50:21 10:53:59 22° 293° (WNW) 10:57:42 145.822/145.860
DX 1 23 Dec 10:52:26 10:55:59 25° 292° (WNW) 10:59:32 434.975-435.025
DUCHIFAT 1 23 Dec 10:59:58 11:03:20 23° 265° (W) 11:06:43 145.980
CUBEBUG 1 23 Dec 11:03:04 11:07:20 54° 100° (E) 11:11:35 437.445
RS-15 23 Dec 11:03:51 11:14:39 69° 116° (ESE) 11:25:29 29.354- 29.394
TIGRISAT 23 Dec 11:07:32 11:09:56 14° 269° (W) 11:12:22 435.000
AISAT 23 Dec 11:08:06 11:12:23 48° 288° (WNW) 11:16:40 437.250
Oscar 11 23 Dec 11:11:12 11:13:04 13° 297° (WNW) 11:14:56 145.826/435.025
BEESAT 2 23 Dec 11:12:37 11:13:59 11° 108° (ESE) 11:15:21 435.950
QB50P2 23 Dec 11:16:45 11:19:17 16° 268° (W) 11:21:50 145.880/145.840
UKube-1 23 Dec 11:21:20 11:23:32 14° 297° (WNW) 11:25:44 .
ISS 23 Dec 11:22:42 11:24:56 17° 131° (SE) 11:27:10 145.825
NANOSAT C BR1 23 Dec 11:27:06 11:28:49 12° 269° (W) 11:30:33 145.865
POLYITAN 1 23 Dec 11:27:43 11:29:20 12° 269° (W) 11:30:57 437.675
50 SAT 23 Dec 11:39:35 11:42:54 23° 292° (WNW) 11:46:12 437.505
TISAT 1 23 Dec 11:45:57 11:49:55 38° 98° (E) 11:53:53 437.305
ZACube-1 23 Dec 11:49:47 11:51:17 12° 298° (WNW) 11:52:46 437.345
Oscar 19 23 Dec 11:55:42 12:00:18 34° 68° (ENE) 12:04:56 437.125/150
SPROUT 23 Dec 11:59:02 12:03:15 52° 100° (E) 12:07:27 437.525
PCSat 23 Dec 12:00:04 12:04:19 24° 107° (ESE) 12:08:36 145.827
VELOX 1 23 Dec 12:01:01 12:03:34 15° 296° (WNW) 12:06:07 145.980
BEESAT 3 23 Dec 12:04:58 12:08:54 49° 117° (ESE) 12:12:56 437.485
ESTCUBE 1 23 Dec 12:13:40 12:17:21 26° 292° (WNW) 12:21:02 437.505/2401.250
ITAMSAT 1 23 Dec 12:19:04 12:22:58 22° 64° (ENE) 12:26:52 435.822/435.867
YUBILEINY 23 Dec 12:19:45 12:26:29 26° 278° (W) 12:33:14 435.215
SWISSCUBE 23 Dec 12:19:50 12:22:33 15° 91° (E) 12:25:15 437.505
ITUPSAT 1 23 Dec 12:21:45 12:24:16 14° 91° (E) 12:26:46 437.325
AIST 2 23 Dec 12:29:29 12:33:22 36° 115° (ESE) 12:37:19 435.215
Gurwin Techsat 1B 23 Dec 12:32:20 12:35:54 19° 62° (ENE) 12:39:28 435.225
CUBEBUG 1 23 Dec 12:40:58 12:43:15 14° 296° (WNW) 12:45:31 437.445
BEESAT 23 Dec 12:43:16 12:47:09 24° 95° (E) 12:51:00 436.000
BEESAT 2 23 Dec 12:47:34 12:51:39 65° 304° (NW) 12:55:49 435.950
AO-7 23 Dec 12:55:04 12:58:50 14° 45° (NE) 13:02:36 29.400- 29.500
ISS 23 Dec 12:57:59 13:01:14 53° 327° (NNW) 13:04:29 145.825
RS-15 23 Dec 13:17:50 13:27:47 39° 321° (NW) 13:37:55 29.354- 29.394
TISAT 1 23 Dec 13:22:34 13:25:27 18° 294° (WNW) 13:28:20 437.305
HORYU 2 23 Dec 13:28:25 13:31:42 21° 66° (ENE) 13:35:02 437.375
AUBIESAT-1 23 Dec 13:31:02 13:33:59 19° 97° (E) 13:36:45 437.475
Oscar 19 23 Dec 13:35:14 13:39:38 28° 265° (W) 13:44:04 437.125/150
SPROUT 23 Dec 13:36:34 13:38:54 15° 296° (WNW) 13:41:14 437.525
PCSat 23 Dec 13:42:13 13:47:25 47° 304° (NW) 13:52:39 145.827
BEESAT 3 23 Dec 13:44:25 13:47:21 19° 315° (NW) 13:50:19 437.485
SWISSCUBE 23 Dec 13:56:05 14:00:45 55° 287° (WNW) 14:05:22 437.505
ITAMSAT 1 23 Dec 13:57:10 14:02:08 46° 261° (W) 14:07:07 435.822/435.867
ITUPSAT 1 23 Dec 13:57:50 14:02:32 59° 287° (WNW) 14:07:11 437.325
M-CUBED/EXP-1 PRIME 23 Dec 13:58:15 14:02:18 43° 103° (ESE) 14:06:00 437.505
AIST 2 23 Dec 14:08:35 14:12:04 24° 313° (NW) 14:15:37 435.215
Gurwin Techsat 1B 23 Dec 14:10:09 14:15:22 59° 259° (W) 14:20:38 435.225
BEESAT 23 Dec 14:20:44 14:25:01 34° 291° (WNW) 14:29:17 436.000
GONETS M04 23 Dec 14:22:51 14:27:39 15° 59° (ENE) 14:32:24
STARS 23 Dec 14:23:05 14:27:13 36° 98° (E) 14:31:18 437.465
KKS-1 23 Dec 14:33:22 14:37:51 72° 102° (ESE) 14:42:19 437.445
ISS 23 Dec 14:36:18 14:38:23 16° 346° (NNW) 14:40:28 145.825
JAS-2 23 Dec 14:38:36 14:43:38 20° 61° (ENE) 14:48:21 435.910
AO-7 23 Dec 14:41:47 14:49:54 60° 66° (ENE) 14:58:04 29.400- 29.500
HORYU 2 23 Dec 15:03:57 15:08:06 38° 262° (W) 15:12:19 437.375
AUBIESAT-1 23 Dec 15:05:15 15:09:05 34° 296° (WNW) 15:12:37 437.475
AIST 1 23 Dec 15:33:47 15:37:54 43° 93° (E) 15:42:02
M-CUBED/EXP-1 PRIME 23 Dec 15:34:10 15:36:54 17° 302° (WNW) 15:39:29 437.505
RS-15 23 Dec 15:37:07 15:44:34 20° 354° (N) 15:52:10 29.354- 29.394
STARS 23 Dec 16:00:07 16:03:27 21° 294° (WNW) 16:06:46 437.465
MOZHAYETS 4 23 Dec 16:05:57 16:09:37 23° 94° (E) 16:13:15
CUTE-I 23 Dec 16:11:26 16:15:02 19° 62° (ENE) 16:18:38 437.470
KKS-1 23 Dec 16:12:18 16:13:53 12° 299° (WNW) 16:15:28 437.445
ISS 23 Dec 16:14:22 16:16:00 13° 7° (N) 16:17:38 145.825
GONETS M04 23 Dec 16:17:17 16:26:05 77° 81° (E) 16:34:46
JAS-2 23 Dec 16:20:25 16:28:02 82° 256° (WSW) 16:34:56 435.910
AO-7 23 Dec 16:36:02 16:43:04 30° 264° (W) 16:50:11 29.400- 29.500
AIST 1 23 Dec 17:13:05 17:15:47 16° 289° (WNW) 17:18:28
PRISM 23 Dec 17:16:04 17:18:39 16° 93° (E) 17:21:13 437.425
Cubesat XI-IV 23 Dec 17:16:58 17:22:16 73° 74° (ENE) 17:27:35 437.490
MaSat-1 23 Dec 17:26:28 17:28:52 71° 246° (WSW) 17:31:23 437.345
STRAND 1 23 Dec 17:30:57 17:32:22 11° 89° (E) 17:33:48 437.568
CUBESAT XI-V 23 Dec 17:38:50 17:41:39 16° 91° (E) 17:44:26 437.345
MOZHAYETS 4 23 Dec 17:42:44 17:46:53 34° 290° (WNW) 17:51:01
CUTE-I 23 Dec 17:49:23 17:54:37 58° 259° (W) 17:59:52 437.470
ISS 23 Dec 17:50:26 17:53:23 30° 27° (NNE) 17:56:20 145.825
RS-15 23 Dec 17:52:51 18:02:12 29° 30° (NNE) 18:11:49 29.354- 29.394
CUSAT 1 23 Dec 18:07:41 18:12:42 18° 62° (ENE) 18:17:55 437.405
JAS-2 23 Dec 18:10:08 18:13:43 14° 271° (W) 18:17:11 435.910
GONETS M04 23 Dec 18:15:48 18:21:51 21° 281° (W) 18:27:53
HO-68 23 Dec 18:31:30 18:36:53 24° 58° (ENE) 18:42:16 435.675
PRISM 23 Dec 18:50:28 18:54:21 39° 289° (WNW) 18:58:11 437.425
SO-50 23 Dec 18:54:24 18:57:00 15° 108° (ESE) 18:59:38 436.795
Cubesat XI-IV 23 Dec 19:00:19 19:02:52 14° 270° (W) 19:05:26 437.490
STRAND 1 23 Dec 19:07:02 19:12:09 81° 285° (WNW) 19:17:14 437.568
CANX-2 23 Dec 19:10:05 19:13:24 22° 68° (ENE) 19:16:44 2200.000
DANDE 23 Dec 19:14:08 19:21:37 42° 73° (ENE) 19:29:43 436.750
CUBESAT XI-V 23 Dec 19:14:55 19:19:21 49° 287° (WNW) 19:23:46 437.345
COMPASS 1 23 Dec 19:22:24 19:25:30 20° 67° (ENE) 19:28:37 437.405
ISS 23 Dec 19:26:58 19:29:59 34° 224° (SW) 19:32:58 145.825
SEEDS 23 Dec 19:31:57 19:35:39 30° 70° (ENE) 19:39:24 437.485
BEESAT 2 23 Dec 19:32:25 19:33:05 10° 37° (NE) 19:33:46 435.950
CUTE 1.7 + AOD 2 23 Dec 19:39:34 19:43:36 42° 72° (ENE) 19:47:40 437.475
CUSAT 1 23 Dec 19:48:48 19:56:51 77° 80° (E) 20:05:22 437.405
BRITE-PL 23 Dec 19:55:36 19:59:43 71° 76° (ENE) 20:03:53 437.365/2234.400
FUNcube-1 23 Dec 20:00:28 20:01:06 10° 61° (ENE) 20:01:44 145.935
